Flag for New Zealand Weather past 2 weeks in Christchurch, New Zealand

Now
45 °F

Overcast.


Feels Like: 41 °F
Forecast: 35 / 53 °F
Wind: 6 mph from Southwest

Location: Christchurch Airport

Current Time: Aug 24, 2014 at 6:00:04 AM

Latest Report: Aug 24, 2014 at 5:30 AM


Visibility: N/A

Pressure: 30.60 "Hg

Humidity: 93%

Dew point: 43 °F

Location of ChristchurchLocation

Historic Weather in Christchurch — Graph

°F

Christchurch temperature yesterday

Maximum temperature yesterday: 54 °F (at 1:30 PM)
Minimum temperature yesterday: 43 °F (at 2:30 AM)
Average temperature yesterday: 48 °F

Past Weeks' High & Low Weather Summary

 TemperatureHumidityPressure
High63 °F (Aug 11, 1:30 PM)100% (Aug 9, 11:30 PM)30.60 "Hg (Aug 9, 11:30 PM)
Low25 °F (Aug 14, 7:00 AM)41% (Aug 22, 2:30 PM)29.30 "Hg (Aug 14, 10:00 AM)
Average43 °F79%29.98 "Hg
* Reported Aug 9 5:00 AM — Aug 24 5:00 AM, Christchurch, Weather by CustomWeather, © 2014

Note: Actual official high and low records may vary slightly from our data, if they occured in-between our weather recording intervals... More about our weather records

Advertising

Christchurch weather history for previous 24 hours

 ConditionsComfort  
Time TempWeatherWind HumidityBarometerVisibility
5:00 AM
Aug 24
45 °FOvercast.5 mph93%30.60 "HgN/A
4:30 AM45 °FOvercast.3 mph93%30.60 "HgN/A
4:00 AM45 °FOvercast.3 mph93%30.57 "HgN/A
3:30 AM45 °FOvercast.5 mph93%30.57 "HgN/A
3:00 AM45 °FOvercast.5 mph93%30.60 "HgN/A
2:30 AM45 °FOvercast.3 mph93%30.60 "HgN/A
2:00 AM45 °FOvercast.6 mph100%30.60 "HgN/A
1:30 AM45 °FOvercast.6 mph93%30.60 "HgN/A
1:00 AM45 °FOvercast.6 mph93%30.60 "HgN/A
12:30 AM45 °FOvercast.7 mph100%30.60 "HgN/A
12:00 AM46 °FOvercast.8 mph87%30.60 "HgN/A
11:30 PM
Aug 23
46 °FOvercast.8 mph87%30.60 "HgN/A
11:00 PM46 °FOvercast.6 mph93%30.60 "HgN/A
10:30 PM46 °FLow clouds.7 mph93%30.60 "HgN/A
10:00 PM46 °FOvercast.6 mph93%30.60 "HgN/A
9:30 PM45 °FLow clouds.5 mph93%30.60 "HgN/A
9:00 PM45 °FOvercast.5 mph93%30.60 "HgN/A
8:30 PM45 °FOvercast.6 mph93%30.60 "HgN/A
8:00 PM45 °FPassing clouds.7 mph93%30.60 "HgN/A
7:30 PM45 °FPassing clouds.7 mph93%30.60 "HgN/A
7:00 PM45 °FPassing clouds.10 mph93%30.60 "HgN/A
6:30 PM46 °FPassing clouds.9 mph93%30.57 "HgN/A
6:00 PM46 °FPassing clouds.10 mph93%30.57 "HgN/A
5:30 PM48 °FMostly cloudy.12 mph87%30.57 "HgN/A
5:00 PM48 °FMostly cloudy.13 mph87%30.57 "HgN/A
4:30 PM48 °FOvercast.15 mph87%30.57 "HgN/A
4:00 PM50 °FMostly cloudy.14 mph82%30.57 "HgN/A
3:30 PM52 °FMore clouds than sun.14 mph82%30.57 "HgN/A
3:00 PM50 °FMore clouds than sun.13 mph82%30.57 "HgN/A
2:30 PM50 °FMore clouds than sun.14 mph82%30.57 "HgN/A
2:00 PM52 °FCloudy.14 mph77%30.57 "HgN/A
1:30 PM54 °FBroken clouds.14 mph77%30.57 "HgN/A
1:00 PM52 °FOvercast.15 mph77%30.57 "HgN/A
12:30 PM52 °FOvercast.15 mph77%30.60 "HgN/A
12:00 PM52 °FOvercast.13 mph77%30.60 "HgN/A
11:30 AM52 °FMore clouds than sun.12 mph77%30.60 "HgN/A
11:00 AM50 °FMostly cloudy.12 mph82%30.60 "HgN/A
10:30 AM50 °FPartly sunny.8 mph82%30.60 "HgN/A
10:00 AM50 °FOvercast.9 mph76%30.60 "HgN/A
9:30 AM50 °FPartly sunny.7 mph76%30.60 "HgN/A
8:30 AM48 °FMore clouds than sun.7 mph82%30.60 "HgN/A
8:00 AM48 °FOvercast.7 mph82%30.60 "HgN/A
7:30 AM48 °FPartly sunny.7 mph82%30.57 "HgN/A
7:00 AM48 °FPartly sunny.7 mph82%30.57 "HgN/A
6:30 AM46 °FMore clouds than sun.6 mph87%30.57 "HgN/A
6:00 AM46 °FOvercast.6 mph87%30.54 "HgN/A
Weather by CustomWeather, © 2014

See weather overviewHow to use our weather pages